User: anonymous   Login
Location: Strawberry
(45.6646°N, 111.9596°W)
Time: 03:09:52
(UTC+00:00)
Language:

CAS-6 - Orbit

View from above orbital plane
View from above orbital plane
View from above satellite
View from above satellite

Ground track
Ground track

The orbit data is extracted from the following two-line orbital elements,

1 44881U 19093C   22343.94190739  .00000695  00000-0  94199-4 0  9999
2 44881  97.8811  60.5298 0014549 340.4878  19.5777 14.81961452160765
Epoch (UTC): 09 December 2022 22:36:20
Eccentricity: 0.0014549
inclination: 97.8811°
perigee height: 613 km
apogee height: 633 km
right ascension of ascending node: 60.5298°
argument of perigee: 340.4878°
revolutions per day: 14.81961452
mean anomaly at epoch: 19.5777°
orbit number at epoch: 16076

The dashed part of the orbit path shows where the satellite is in the earth's shadow,  

DLR